College Park, MD

8:29 AM EDT on May 27, 2017 (GMT -0400)
College Park

Weather History for KCGS - November, 2012

Change the Weather History Date:

Friday, November 23, 2012

  Actual Average Record
Temperature  
Mean Temperature 46 °F -  
Max Temperature 63 °F 53 °F 73 °F (1979)
Min Temperature 30 °F 32 °F 15 °F (1964)
Degree Days  
Heating Degree Days 18    
Moisture  
Dew Point 30 °F    
Average Humidity 60    
Maximum Humidity 93    
Minimum Humidity 24    
Precipitation  
Precipitation 0.00 in - - ()
Sea Level Pressure  
Sea Level Pressure 29.94 in    
Wind  
Wind Speed 2 mph (WSW)    
Max Wind Speed 16 mph    
Max Gust Speed 26 mph    
Visibility 10 miles    
Events      
Averages and records for this station are not official NWS values.
T = Trace of Precipitation, MM = Missing Value Source: NWS Daily Summary

Daily Weather History Graph

Daily Weather History Graph

Search for Another Location

Airport or City:

Trip Planner

Search our weather history database for the weather conditions in past years. The results will help you decide how hot, cold, wet, or windy it might be!

Date:

Astronomy

Nov. 23, 2012 Rise Set
Actual Time 6:59 AM EST 4:48 PM EST
Civil Twilight 6:30 AM EST 5:17 PM EST
Nautical Twilight 5:57 AM EST 5:50 PM EST
Astronomical Twilight 5:26 AM EST 6:22 PM EST
Moon 2:00 PM EST (11/23) 2:18 AM EST (11/23)
Length of Visible Light 10h 46m
Length of Day
9h 48m
Waxing Gibbous, 79% of the Moon is Illuminated
Nov 23
Waxing Gibbous
Nov 28
Full
Dec 6
Last Quarter
Dec 13
New
Dec 20
First Quarter

Hourly Weather History & Observations

Time (EST) Temp. Windchill Dew Point Humidity Pressure Visibility Wind Dir Wind Speed Gust Speed Precip Events Conditions
12:30 AM 33.8 °F - 29.3 °F 84% 30.15 in 10.0 mi Calm Calm - N/A   Clear
12:55 AM 32.9 °F - 29.3 °F 87% 30.14 in 10.0 mi Calm Calm - N/A   Clear
1:20 AM 32.4 °F - 29.7 °F 90% 30.14 in 10.0 mi Calm Calm - N/A   Clear
1:40 AM 32.2 °F - 29.7 °F 90% 30.14 in 10.0 mi Calm Calm - N/A   Clear
2:00 AM 32.2 °F - 29.5 °F 90% 30.14 in 10.0 mi Calm Calm - N/A   Clear
2:25 AM 31.8 °F - 29.1 °F 90% 30.13 in 10.0 mi Calm Calm - N/A   Clear
2:45 AM 32.0 °F - 29.5 °F 90% 30.13 in 10.0 mi Calm Calm - N/A   Clear
3:05 AM 31.6 °F - 28.6 °F 88% 30.12 in 10.0 mi Calm Calm - N/A   Clear
3:50 AM 31.5 °F - 29.7 °F 93% 30.10 in 7.0 mi Calm Calm - N/A   Clear
4:10 AM 31.5 °F - 29.7 °F 93% 30.10 in 7.0 mi Calm Calm - N/A   Clear
4:30 AM 31.1 °F - 29.3 °F 93% 30.11 in 7.0 mi Calm Calm - N/A   Clear
4:50 AM 30.7 °F - 28.9 °F 93% 30.10 in 7.0 mi Calm Calm - N/A   Clear
5:15 AM 30.9 °F - 29.1 °F 93% 30.10 in 10.0 mi Calm Calm - N/A   Clear
5:35 AM 30.2 °F - 28.4 °F 93% 30.09 in 7.0 mi Calm Calm - N/A   Clear
5:55 AM 30.2 °F - 28.4 °F 93% 30.09 in 7.0 mi Calm Calm - N/A   Clear
6:20 AM 30.2 °F - 28.4 °F 93% 30.08 in 7.0 mi Calm Calm - N/A   Clear
6:40 AM 30.4 °F - 28.6 °F 93% 30.07 in 7.0 mi Calm Calm - N/A   Clear
7:00 AM 30.2 °F - 28.4 °F 93% 30.07 in 7.0 mi Calm Calm - N/A   Clear
7:20 AM 30.2 °F - 28.4 °F 93% 30.06 in 7.0 mi Calm Calm - N/A   Clear
7:45 AM 31.8 °F - 30.0 °F 93% 30.06 in 10.0 mi Calm Calm - N/A   Clear
8:05 AM 32.4 °F - 30.4 °F 92% 30.05 in 10.0 mi Calm Calm - N/A   Clear
8:25 AM 35.1 °F - 31.3 °F 86% 30.04 in 10.0 mi Calm Calm - N/A   Clear
8:45 AM 37.8 °F - 31.8 °F 79% 30.04 in 10.0 mi Calm Calm - N/A   Clear
9:10 AM 41.5 °F - 32.7 °F 71% 30.03 in 10.0 mi Calm Calm - N/A   Clear
9:30 AM 45.5 °F 44.2 °F 33.6 °F 63% 30.00 in 10.0 mi SE 3.5 mph - N/A   Clear
9:50 AM 48.9 °F - 31.6 °F 51% 30.00 in 10.0 mi Calm Calm - N/A   Clear
10:10 AM 51.3 °F - 30.4 °F 45% 30.00 in 10.0 mi Calm Calm - N/A   Clear
10:45 AM 54.0 °F - 25.5 °F 33% 29.98 in 10.0 mi South 4.6 mph - N/A   Clear
11:15 AM 55.6 °F - 25.2 °F 31% 29.96 in 10.0 mi South 5.8 mph - N/A   Clear
11:35 AM 57.2 °F - 25.2 °F 29% 29.94 in 10.0 mi South 5.8 mph - N/A   Clear
12:00 PM 59.0 °F - 24.6 °F 27% 29.91 in 10.0 mi South 5.8 mph - N/A   Clear
12:15 PM 60.8 °F - 24.6 °F 25% 29.90 in 10.0 mi South 5.8 mph - N/A   Clear
1:25 PM 62.8 °F - 24.8 °F 24% 29.85 in 10.0 mi South 6.9 mph - N/A   Clear
1:45 PM 63.3 °F - 26.6 °F 25% 29.84 in 10.0 mi SSW 3.5 mph - N/A   Clear
2:05 PM 62.6 °F - 25.7 °F 25% 29.83 in 10.0 mi South 3.5 mph - N/A   Clear
2:25 PM 62.4 °F - 26.8 °F 26% 29.82 in 10.0 mi SSW 5.8 mph - N/A   Clear
3:10 PM 63.0 °F - 28.2 °F 27% 29.80 in 10.0 mi SW 5.8 mph - N/A   Clear
3:30 PM 62.6 °F - 28.8 °F 28% 29.80 in 10.0 mi SSW 3.5 mph - N/A   Clear
4:15 PM 61.0 °F - 28.9 °F 30% 29.79 in 10.0 mi Calm Calm - N/A   Clear
4:35 PM 60.8 °F - 29.1 °F 30% 29.78 in 10.0 mi Calm Calm - N/A   Clear
4:55 PM 59.9 °F - 29.7 °F 32% 29.78 in 10.0 mi Calm Calm - N/A   Scattered Clouds
5:15 PM 55.8 °F - 33.3 °F 43% 29.78 in 10.0 mi Calm Calm - N/A   Mostly Cloudy
5:40 PM 54.0 °F - 34.7 °F 48% 29.78 in 10.0 mi Calm Calm - N/A   Mostly Cloudy
6:00 PM 53.6 °F - 37.4 °F 54% 29.78 in 10.0 mi Calm Calm - N/A   Overcast
7:05 PM 57.2 °F - 32.5 °F 39% 29.80 in 10.0 mi North 3.5 mph - N/A   Overcast
7:25 PM 55.0 °F - 34.9 °F 47% 29.78 in 10.0 mi Calm Calm - N/A   Scattered Clouds
7:45 PM 50.9 °F - 37.9 °F 61% 29.78 in 10.0 mi Calm Calm - N/A   Clear
8:05 PM 50.0 °F - 37.4 °F 62% 29.79 in 10.0 mi Calm Calm - N/A   Mostly Cloudy
8:25 PM 51.6 °F - 36.0 °F 55% 29.79 in 10.0 mi Calm Calm - N/A   Overcast
8:50 PM 52.9 °F - 35.4 °F 52% 29.80 in 10.0 mi NW 11.5 mph 18.4 mph N/A   Overcast
9:10 PM 58.3 °F - 30.6 °F 35% 29.79 in 10.0 mi WNW 16.1 mph 24.2 mph N/A   Overcast
9:30 PM 57.2 °F - 30.2 °F 36% 29.80 in 10.0 mi NW 11.5 mph 23.0 mph N/A   Mostly Cloudy
9:55 PM 55.8 °F - 30.2 °F 38% 29.80 in 10.0 mi WNW 10.4 mph 20.7 mph N/A   Clear
10:15 PM 54.7 °F - 28.8 °F 37% 29.80 in 10.0 mi WNW 11.5 mph 25.3 mph N/A   Clear
10:35 PM 53.8 °F - 29.1 °F 39% 29.80 in 10.0 mi WNW 13.8 mph 26.5 mph N/A   Clear
10:55 PM 53.1 °F - 29.8 °F 41% 29.81 in 10.0 mi NW 11.5 mph 21.9 mph N/A   Clear
11:20 PM 52.2 °F - 28.8 °F 41% 29.81 in 10.0 mi WNW 12.7 mph 21.9 mph N/A   Clear
11:40 PM 51.6 °F - 26.4 °F 38% 29.83 in 10.0 mi NW 10.4 mph 18.4 mph N/A   Clear